This demonstration page uses our WeatherBlox Daily Observations layout. Learn more.

Left ArrowRight Arrow

39.51506, -84.39828

Hourly Observations for October 15, 2018

Temp ( °F °C ) Dew Point ( °F °C ) Humidity (%) Winds ( mph kmh ) Pressure ( in mb ) Visibility ( mi km ) Precip ( " mm )
12:15 am 00:15 Cloudy with Mist and Fog 54 12.2 53 11.9 98 98 Calm 30 1016 2.5 4.02335 0 0
12:35 am 00:35 Cloudy with Mist and Fog 54 12.2 54 12 99 99 Calm 30 1016 1.75 2.816345 0 0
12:55 am 00:55 Cloudy with Mist and Fog 54 12.3 54 12.2 99 99 Calm 29.97 1015 1.75 2.816345 0 0
1:15 am 01:15 Cloudy with Mist and Fog 54 12.4 54 12.2 99 99 Calm 30 1016 1.25 2.011675 0 0
1:35 am 01:35 Cloudy with Mist and Fog 54 12.4 54 12.3 99 99 Calm 29.97 1015 1.5 2.41401 0.01 0.254
1:55 am 01:55 Cloudy with Mist and Fog 54 12.4 54 12.3 99 99 Calm 29.97 1015 1.25 2.011675 0.01 0.254
2:15 am 02:15 Cloudy with Mist and Fog 55 12.5 54 12.4 99 99 WSW 3 6 30 1016 1.25 2.011675 0 0
2:35 am 02:35 Cloudy with Mist and Fog 55 12.5 54 12.4 99 99 SW 3 6 29.97 1015 1.25 2.011675 0 0
2:55 am 02:55 Cloudy with Mist and Fog 55 12.5 54 12.4 99 99 SSW 3 6 29.97 1015 1.75 2.816345 0 0
3:15 am 03:15 Cloudy with Mist and Fog 55 12.5 54 12.4 99 99 SW 3 6 29.97 1015 2 3.21868 0 0
3:35 am 03:35 Cloudy with Mist and Fog 55 12.6 55 12.5 99 99 SW 3 6 29.97 1015 3 4.82802 0 0
3:55 am 03:55 Cloudy with Mist and Fog 55 12.6 55 12.5 99 99 SW 3 6 29.97 1015 2.5 4.02335 0 0
4:15 am 04:15 Cloudy with Mist and Fog 55 12.7 55 12.6 99 99 Calm 29.97 1015 2.5 4.02335 0 0
4:35 am 04:35 Cloudy with Mist and Fog 55 12.7 55 12.6 99 99 Calm 29.97 1015 2.5 4.02335 0 0
4:55 am 04:55 Cloudy with Mist and Fog 55 12.8 55 12.7 99 99 SW 5 7 29.97 1015 2 3.21868 0 0
5:15 am 05:15 Cloudy with Light Rain 55 12.9 55 12.8 99 99 SSW 3 6 29.97 1015 5 8.0467 0 0
5:35 am 05:35 Cloudy with Rain 56 13.1 55 12.9 99 99 SSW 5 7 29.97 1015 5 8.0467 0.01 0.254
5:55 am 05:55 Cloudy with Light Rain 56 13.1 55 12.8 98 98 SW 7 11 30 1016 5 8.0467 0.02 0.508
6:15 am 06:15 Cloudy with Light Rain 56 13.2 55 12.8 97 97 SSW 3 6 29.97 1015 5 8.0467 0.01 0.254
6:35 am 06:35 Cloudy with Heavy Rain 56 13.3 55 12.9 97 97 S 8 13 29.97 1015 5 8.0467 0.03 0.762
6:55 am 06:55 Cloudy with Light Rain 56 13.3 55 12.9 97 97 SSW 5 7 29.97 1015 7 11.26538 0.04 1.016
7:15 am 07:15 Cloudy with Light Rain 56 13.4 55 13 97 97 SW 6 9 30 1016 10 16.0934 0 0
7:35 am 07:35 Cloudy 56 13.4 55 13 97 97 SW 6 9 30 1016 10 16.0934 0 0
7:55 am 07:55 Cloudy 56 13.5 55 12.9 96 96 W 6 9 30 1016 10 16.0934 0 0
8:15 am 08:15 Cloudy 56 13.5 55 12.7 95 95 WSW 7 11 30 1016 10 16.0934 0 0
8:35 am 08:35 Cloudy 56 13.5 55 12.6 94 94 W 7 11 30.03 1017 10 16.0934 0 0
8:55 am 08:55 Cloudy with Light Rain 56 13.4 55 12.6 95 95 W 9 15 30.03 1017 10 16.0934 0 0
9:15 am 09:15 Cloudy 56 13.4 54 12.4 94 94 W 9 15 30.03 1017 10 16.0934 0 0
9:35 am 09:35 Cloudy 56 13.2 54 12.1 93 93 W 13 20 30.03 1017 10 16.0934 0 0
9:55 am 09:55 Cloudy 55 13 53 11.9 93 93 W 12 19 30.06 1018 10 16.0934 0 0
10:15 am 10:15 Cloudy with Light Rain 55 12.9 53 11.7 92 92 WSW 9 15 30.06 1018 10 16.0934 0 0
10:35 am 10:35 Cloudy with Light Rain 55 12.8 53 11.9 94 94 WSW 7 11 30.06 1018 7 11.26538 0 0
10:55 am 10:55 Cloudy with Light Rain 55 12.7 53 11.8 94 94 WSW 9 15 30.09 1019 5 8.0467 0 0
11:15 am 11:15 Cloudy with Light Rain 55 12.7 53 11.5 92 92 W 8 13 30.09 1019 5 8.0467 0 0
11:35 am 11:35 Cloudy with Drizzle 55 12.5 53 11.7 95 95 WNW 9 15 30.09 1019 3.5 5.63269 0 0
11:55 am 11:55 Cloudy 53 11.9 51 10.5 91 91 W 8 13 30.09 1019 10 16.0934 0.01 0.254
12:15 pm 12:15 Cloudy 53 11.8 50 10.2 90 90 WNW 10 17 30.12 1020 10 16.0934 0 0
12:35 pm 12:35 Cloudy 54 12 51 10.5 91 91 W 6 9 30.12 1020 10 16.0934 0 0
12:55 pm 12:55 Cloudy 54 12.3 50 10.2 87 87 NW 10 17 30.12 1020 10 16.0934 0 0
1:15 pm 13:15 Cloudy 54 12.2 50 10.1 87 87 W 9 15 30.12 1020 10 16.0934 0 0
1:35 pm 13:35 Cloudy 53 11.9 49 9.5 85 85 W 10 17 30.12 1020 10 16.0934 0 0
1:55 pm 13:55 Cloudy 54 12.1 48 9.1 82 82 W 12 19 30.12 1020 10 16.0934 0 0
2:15 pm 14:15 Cloudy 53 11.7 48 8.7 82 82 WNW 12 19 30.12 1020 10 16.0934 0 0
2:35 pm 14:35 Cloudy 54 12 48 9.1 83 83 W 10 17 30.15 1021 10 16.0934 0 0
2:55 pm 14:55 Cloudy 53 11.6 46 8 79 79 WNW 10 17 30.15 1021 10 16.0934 0 0
3:15 pm 15:15 Cloudy 53 11.6 46 8 79 79 WNW 10 17 30.15 1021 10 16.0934 0 0
3:35 pm 15:35 Cloudy 53 11.9 46 8 77 77 WNW 9 15 30.15 1021 10 16.0934 0 0
3:55 pm 15:55 Cloudy 52 11.3 45 7.4 77 77 WNW 12 19 30.15 1021 10 16.0934 0 0
4:15 pm 16:15 Cloudy 53 11.7 46 7.5 76 76 WNW 9 15 30.15 1021 10 16.0934 0 0
4:35 pm 16:35 Cloudy 52 11.2 44 6.8 75 75 WNW 14 22 30.15 1021 10 16.0934 0 0
4:55 pm 16:55 Partly Cloudy 51 10.6 44 6.8 78 78 WNW 10 17 30.18 1022 10 16.0934 0 0
5:15 pm 17:15 Partly Cloudy 50 9.9 43 6 77 77 WNW 14 22 30.18 1022 10 16.0934 0 0
5:35 pm 17:35 Mostly Cloudy 49 9.5 42 5.7 77 77 WNW 8 13 30.18 1022 10 16.0934 0 0
5:55 pm 17:55 Mostly Cloudy 49 9.4 42 5.6 77 77 NW 10 17 30.18 1022 10 16.0934 0 0
6:15 pm 18:15 Mostly Cloudy 48 9.1 41 5.1 76 76 WNW 9 15 30.21 1023 10 16.0934 0 0
6:35 pm 18:35 Sunny 48 8.7 41 4.8 77 77 WNW 8 13 30.21 1023 10 16.0934 0 0
6:55 pm 18:55 Sunny 47 8.5 41 4.9 78 78 WNW 9 15 30.21 1023 10 16.0934 0 0
7:15 pm 19:15 Clear 47 8.1 40 4.5 78 78 WNW 10 17 30.24 1024 10 16.0934 0 0
7:35 pm 19:35 Clear 46 7.6 39 4.1 79 79 WNW 6 9 30.24 1024 10 16.0934 0 0
7:50 pm 19:50 Clear 45 7.4 39 4.1 80 80 WNW 5 7 30.24 1024 10 16.0934 0 0
8:15 pm 20:15 Clear 44 6.9 39 4.1 83 83 Calm 30.27 1025 10 16.0934 0 0
8:35 pm 20:35 Clear 44 6.5 40 4.2 85 85 Calm 30.27 1025 10 16.0934 0 0
8:55 pm 20:55 Clear 44 6.7 40 4.2 84 84 Calm 30.27 1025 10 16.0934 0 0
9:15 pm 21:15 Clear 44 6.6 40 4.4 86 86 Calm 30.27 1025 10 16.0934 0 0
9:35 pm 21:35 Clear 43 6.2 40 4.4 88 88 WSW 3 6 30.27 1025 10 16.0934 0 0
9:55 pm 21:55 Clear 43 6.1 40 4.3 88 88 SW 3 6 30.27 1025 10 16.0934 0 0
10:15 pm 22:15 Clear 43 5.9 40 4.3 90 90 SW 3 6 30.3 1026 10 16.0934 0 0
10:35 pm 22:35 Clear 41 4.8 39 3.8 93 93 Calm 30.3 1026 10 16.0934 0 0
10:55 pm 22:55 Clear 41 4.8 40 4.3 97 97 Calm 30.3 1026 10 16.0934 0 0
11:15 pm 23:15 Clear 40 4.4 39 3.9 97 97 Calm 30.33 1027 10 16.0934 0 0
11:35 pm 23:35 Clear with Mist and Fog 40 4.3 39 4 98 98 Calm 30.33 1027 3.5 5.63269 0 0
11:55 pm 23:55 Clear 40 4.2 39 3.8 97 97 Calm 30.33 1027 10 16.0934 0 0

Powered by AerisWeather